Location: Sobotiste
(48.7170°N, 17.4000°E)
Time: 07:40:24
(UTC+02:00)

CAS-6 - Pass Details

Date: 23 March 2026
Orbit: 601 x 618 km, 97.8° (Epoch: 15 April)

Event Time Altitude Azimuth Distance (km) Brightness Sun altitude
Exits shadow 21:00:43 24° 20° (NNE) 1,267 ? -27.2°
Drops below altitude 10° 21:02:44 10° 2° (N) 1,963 ? -27.5°
Sets 21:05:02 0° 354° (N) 2,874 ? -27.8°
